Terminal Aerodrome Forecast
Issued by NWS Pittsburgh, PA

Current Version | Previous Version | Text Only | Print | Product List | Glossary Off
Versions: 1 2 3 4 5 6 7 8 9 10 11 12 13 14 15 16 17 18 19 20 21 22 23 24 25 26 27 28 29

000
FTUS41 KPBZ 202000 AAA
TAFPIT
TAF AMD
KPIT 202057Z 2021/2124 20010KT P6SM SCT035
     FM210900 20007KT P6SM BKN015
     FM211200 21006KT P6SM VCSH OVC025
     FM211800 25011KT P6SM BKN045=

USA.gov is the U.S. government's official web portal to all federal, state and local government web resources and services.